SCP
0 0 0 0 0 0 0 0 0 0 0 0 0 0 0 0 0 0 0 0 0 0
0 0 0 0 0 0 0 0 0 0 0 0 0 0 0 0 0 0 0 0 0 0
0 0 0 0 0 0 0 0 0 0 0 0 0 0 0 0 0 0 0 0 0 0
0 0 0 0 0 0 0 0 0 0 0 0 0 0 0 0 0 0 0 0 0 0
0 0 0 0 0 0 0 0 0 0 0 0 0 0 0 0 0 0 0 0 0 0
0 0 0 0 0 0 0 0 0 0 0 0 0 0 0 0 0 0 0 0 0 0
0 0 0 0 0 0 0 0 0 0 0 0 0 0 0 0 0 0 0 0 0 0
0 0 0 0 0 0 0 0 0 0 0 0 0 0 0 0 0 0 0 0 0 0
0 0 0 0 0 0 0 0 0 0 0 0 0 0 0 0 0 0 0 0 0 0
0 0 0 0 0 0 0 0 0 0 0 0 0 0 0 0 0 0 0 0 0 0
0 0 0 0 0 0 0 0 0 0 0 0 0 0 0 0 0 0 0 0 0 0
0 0 0 0 0 0 0 0 0 0 0 0 0 0 0 0 0 0 0 0 0 0
0 0 0 0 0 0 0 0 0 0 0 0 0 0 0 0 0 0 0 0 0 0
0 0 0 0 0 0 0 0 0 0 0 0 0 0 0 0 0 0 0 0 0 0
Wind_Speed_500mb
71 72 71 70 72 70 68 64 62 61 59 58 59 60 63 67 69 72 78 82 88 91
72 72 73 71 72 72 71 69 66 66 64 60 58 58 60 65 67 67 70 73 76 81
60 62 63 62 63 62 62 62 63 63 63 62 60 57 58 63 66 71 72 75 78 79
49 50 50 52 54 56 57 58 57 57 59 58 59 58 58 61 63 66 72 71 77 80
36 36 37 39 41 44 47 49 50 52 53 53 53 54 56 62 60 69 74 69 76 77
27 27 29 32 35 40 44 46 49 52 55 56 53 53 56 53 60 62 65 71 64 73
29 29 30 32 35 40 44 46 46 47 48 49 49 52 54 56 60 67 59 59 59 63
28 30 34 37 38 40 42 40 39 40 41 43 45 48 50 52 55 60 59 64 66 69
34 36 39 42 43 43 43 40 39 38 38 40 42 44 47 50 51 51 56 60 66 63
39 41 43 44 44 43 41 39 39 39 39 39 41 45 46 46 46 46 46 45 43 40
44 44 43 44 42 38 37 37 37 40 40 38 38 40 39 36 37 38 40 41 39 41
40 40 40 37 36 36 38 42 43 40 38 35 33 36 35 28 27 26 25 27 33 33
35 34 35 35 37 34 33 35 34 35 37 33 31 32 29 25 29 28 23 23 25 24
30 30 32 27 27 25 27 29 30 28 30 27 26 27 25 23 26 24 22 23 25 26
Wind_Direction_500mb
250 253 258 264 268 272 276 279 281 282 281 279 279 280 281 280 280 279 277 275 273 272
254 256 260 264 268 272 275 278 283 286 287 286 285 284 283 283 283 283 282 281 279 275
251 254 259 264 266 270 275 279 282 283 284 286 284 283 282 281 283 284 284 284 285 281
242 247 252 259 266 271 273 274 276 280 282 283 284 285 283 282 283 281 283 284 287 284
236 243 251 259 266 270 274 277 278 278 275 276 277 280 282 284 282 283 280 280 285 288
228 241 254 263 269 272 274 274 273 273 274 273 270 267 269 270 283 280 280 281 286 288
232 242 251 260 266 269 270 272 278 280 280 281 282 284 283 277 270 270 272 284 282 285
238 251 260 265 269 273 274 276 278 281 285 288 291 291 292 291 287 280 270 269 267 278
249 258 265 269 272 276 280 283 285 285 287 288 288 289 291 291 286 283 282 276 274 280
253 260 264 268 271 271 275 280 281 282 283 286 292 294 296 296 293 290 287 284 283 287
253 260 263 262 262 262 267 274 277 278 279 282 286 290 292 293 295 291 287 285 285 291
261 261 260 259 261 265 269 272 273 273 276 279 286 291 300 299 303 312 308 304 296 307
253 251 249 251 256 263 270 275 282 283 285 284 285 293 306 307 312 318 319 312 317 316
237 240 243 246 258 267 273 273 274 278 285 285 289 294 295 299 304 300 298 302 308 310
Wind_Speed_850mb
71 72 71 70 72 70 68 64 62 61 59 58 59 60 63 67 69 72 78 82 88 91
72 72 73 71 72 72 71 69 66 66 64 60 58 58 60 65 67 67 70 73 76 81
60 62 63 62 63 62 62 62 63 63 63 62 60 57 58 63 66 71 72 75 78 79
49 50 50 52 54 56 57 58 57 57 59 58 59 58 58 61 63 66 72 71 77 80
36 36 37 39 41 44 47 49 50 52 53 53 53 54 56 62 60 69 74 69 76 77
27 27 29 32 35 40 44 46 49 52 55 56 53 53 56 53 60 62 65 71 64 73
29 29 30 32 35 40 44 46 46 47 48 49 49 52 54 56 60 67 59 59 59 63
28 30 34 37 38 40 42 40 39 40 41 43 45 48 50 52 55 60 59 64 66 69
34 36 39 42 43 43 43 40 39 38 38 40 42 44 47 50 51 51 56 60 66 63
39 41 43 44 44 43 41 39 39 39 39 39 41 45 46 46 46 46 46 45 43 40
44 44 43 44 42 38 37 37 37 40 40 38 38 40 39 36 37 38 40 41 39 41
40 40 40 37 36 36 38 42 43 40 38 35 33 36 35 28 27 26 25 27 33 33
35 34 35 35 37 34 33 35 34 35 37 33 31 32 29 25 29 28 23 23 25 24
30 30 32 27 27 25 27 29 30 28 30 27 26 27 25 23 26 24 22 23 25 26
Wind_Direction_850mb
250 253 258 264 268 272 276 279 281 282 281 279 279 280 281 280 280 279 277 275 273 272
254 256 260 264 268 272 275 278 283 286 287 286 285 284 283 283 283 283 282 281 279 275
251 254 259 264 266 270 275 279 282 283 284 286 284 283 282 281 283 284 284 284 285 281
242 247 252 259 266 271 273 274 276 280 282 283 284 285 283 282 283 281 283 284 287 284
236 243 251 259 266 270 274 277 278 278 275 276 277 280 282 284 282 283 280 280 285 288
228 241 254 263 269 272 274 274 273 273 274 273 270 267 269 270 283 280 280 281 286 288
232 242 251 260 266 269 270 272 278 280 280 281 282 284 283 277 270 270 272 284 282 285
238 251 260 265 269 273 274 276 278 281 285 288 291 291 292 291 287 280 270 269 267 278
249 258 265 269 272 276 280 283 285 285 287 288 288 289 291 291 286 283 282 276 274 280
253 260 264 268 271 271 275 280 281 282 283 286 292 294 296 296 293 290 287 284 283 287
253 260 263 262 262 262 267 274 277 278 279 282 286 290 292 293 295 291 287 285 285 291
261 261 260 259 261 265 269 272 273 273 276 279 286 291 300 299 303 312 308 304 296 307
253 251 249 251 256 263 270 275 282 283 285 284 285 293 306 307 312 318 319 312 317 316
237 240 243 246 258 267 273 273 274 278 285 285 289 294 295 299 304 300 298 302 308 310